Wind_Speed
18 18 17 12 10 11 11 12 12 12 11 10 9 8 7 6 6 5 5 4 3 2 2 2 2 2 2 2 2 1 0 2 5 8 10 11 11 11 11 12 11 10 9 9 10 10 10 12 13 15 16 17 17 18 19 19 19 19 19 20 20 21 23 24 25 27 27 26 24 24 23 23 23 23 23 22 19 18 16 15 19 22 20 17 16
14 17 16 11 10 10 11 12 11 12 11 10 9 9 8 7 7 6 6 5 4 3 2 2 2 2 1 1 2 1 2 4 6 8 10 11 11 11 11 11 11 9 9 9 10 10 10 11 12 14 15 16 17 18 18 18 19 18 19 19 20 21 22 24 27 29 31 28 26 25 25 25 25 24 24 22 20 18 17 16 18 21 20 17 15
13 16 15 10 9 10 12 12 11 12 12 11 11 10 9 8 8 7 7 6 5 5 4 3 3 2 1 0 1 2 3 5 6 8 10 11 11 11 10 11 10 9 9 9 9 9 10 10 12 13 14 16 17 17 17 18 18 18 18 19 19 21 22 24 27 30 32 32 29 26 26 26 26 26 25 23 21 20 19 18 18 20 21 18 16
14 14 13 10 10 11 13 13 12 13 12 12 12 11 10 9 8 8 8 7 7 6 5 4 4 3 2 1 2 3 4 6 6 8 10 11 11 11 10 10 10 9 9 9 9 9 9 10 11 12 14 15 16 16 16 17 17 17 17 17 18 20 21 24 27 29 32 33 32 29 28 26 26 26 26 25 23 22 21 20 19 20 20 18 17
12 12 11 10 11 12 13 13 13 13 13 13 12 12 10 9 9 9 8 8 8 8 7 6 5 4 3 2 2 3 4 6 7 8 10 11 11 11 10 10 9 8 8 8 8 9 9 9 10 11 13 15 15 15 15 16 16 16 16 16 17 19 20 22 25 28 31 33 33 32 31 29 27 26 26 25 25 24 23 22 21 20 19 18 17
11 11 12 12 12 13 14 14 14 14 14 14 13 12 10 10 10 9 9 9 9 9 9 8 7 6 5 4 3 4 5 6 7 8 9 10 11 10 9 9 9 8 8 8 8 8 8 9 9 10 12 13 14 13 14 15 15 15 15 15 17 18 19 21 24 27 29 32 33 32 31 31 30 29 27 26 25 25 24 23 22 21 20 19 18
12 13 14 13 13 13 14 14 14 14 14 13 12 12 11 10 10 10 9 9 10 10 10 10 9 7 6 5 4 4 5 6 6 7 9 10 11 11 10 9 9 8 8 8 8 8 8 8 9 10 11 12 12 11 12 13 14 14 14 15 16 17 18 20 22 25 28 30 32 31 30 31 32 31 30 29 28 26 25 24 23 22 21 20 20
14 15 15 14 13 13 14 14 14 14 14 13 12 11 11 10 10 10 9 10 10 10 11 11 10 9 8 7 6 5 5 6 6 7 9 10 10 11 10 9 9 8 8 8 8 7 7 7 8 9 10 11 11 9 10 11 12 12 13 14 15 16 17 19 21 23 26 28 31 30 29 30 30 31 31 31 30 29 28 27 26 24 23 23 22
16 16 15 14 14 13 13 13 13 13 13 12 11 11 10 10 9 9 9 9 10 11 12 12 12 11 9 8 7 6 6 6 7 7 9 10 10 11 10 10 10 9 8 8 8 8 7 7 7 8 9 10 10 8 9 10 10 10 11 12 13 15 16 17 19 22 24 26 29 29 29 29 29 29 30 30 30 30 29 29 28 27 27 26 25
16 15 15 14 14 13 12 11 11 12 11 11 10 10 9 9 8 8 8 9 10 11 11 12 13 12 11 10 9 8 7 7 7 8 9 10 10 11 11 12 11 10 10 9 8 8 8 8 8 8 8 9 10 8 7 8 8 8 8 10 12 13 14 15 17 20 22 24 26 26 27 28 28 28 28 28 29 28 28 28 28 28 27 27 26
15 14 14 14 14 12 11 11 11 11 10 10 9 9 8 7 7 7 7 8 9 10 11 12 13 13 13 12 11 9 9 8 9 9 9 10 11 12 13 13 12 11 10 9 9 8 8 8 8 8 8 9 9 8 7 7 7 7 7 7 9 11 12 13 16 18 20 22 23 24 25 26 26 27 27 27 28 28 28 28 27 27 27 26 26
15 15 15 14 14 12 12 11 11 11 10 9 8 8 7 6 6 6 7 8 9 10 11 11 12 13 14 14 13 11 11 10 10 10 10 10 12 13 14 14 13 12 11 10 10 9 9 9 9 9 9 9 9 8 7 6 6 6 5 6 7 9 10 12 14 16 18 20 20 22 23 23 24 25 25 26 26 26 27 26 26 26 26 26 25
14 15 15 14 13 12 12 11 11 10 9 9 8 7 7 7 7 7 7 8 9 10 11 11 12 13 14 15 14 13 12 11 11 11 11 11 12 13 14 14 14 13 12 11 11 10 10 10 10 9 9 9 9 8 7 6 6 5 5 4 5 6 8 10 12 14 16 17 18 20 21 21 21 22 23 24 24 25 25 25 25 25 25 25 25
12 14 14 13 13 12 12 11 11 10 9 8 7 7 7 7 7 8 8 8 9 10 11 11 12 13 14 15 15 14 12 12 11 11 11 12 12 13 15 15 14 14 13 12 12 11 11 11 11 10 9 9 9 8 7 7 6 5 4 4 4 5 6 8 10 12 14 15 16 17 18 19 20 20 21 22 22 22 23 23 24 24 24 24 24
11 12 13 13 12 12 11 11 10 9 8 7 7 8 7 7 7 8 8 9 9 10 10 11 12 12 13 14 14 14 13 12 12 12 11 12 13 14 15 15 15 15 15 14 13 13 13 13 12 11 10 10 9 9 8 7 7 6 5 4 4 4 4 5 7 9 11 13 14 15 16 17 17 18 19 20 20 21 21 21 21 22 22 22 22
12 11 12 12 12 11 10 10 9 7 7 7 7 7 7 7 7 7 8 8 9 9 10 11 12 12 13 13 14 14 13 13 12 12 12 11 12 13 15 15 14 15 16 15 15 14 14 14 14 13 12 11 11 10 9 8 8 7 6 5 4 4 3 3 5 7 9 10 11 12 13 14 15 16 16 17 18 18 19 19 19 20 20 20 20
14 12 11 11 11 10 9 7 7 7 7 7 7 7 6 6 7 7 7 7 8 9 10 11 11 12 12 12 13 13 13 13 13 13 13 12 12 13 15 16 15 16 16 16 16 16 15 15 14 14 14 14 13 11 10 9 9 8 7 6 5 4 3 3 3 4 6 7 9 9 10 11 12 12 13 14 15 15 16 16 17 17 17 18 18
14 13 11 10 9 9 7 7 6 6 6 6 5 5 5 5 6 6 7 7 8 10 11 11 11 10 10 10 11 12 12 13 13 14 14 13 12 13 14 15 15 15 16 16 17 16 16 15 15 16 17 16 15 13 12 11 10 10 9 7 7 5 4 3 3 3 4 5 6 6 7 8 8 9 10 11 12 12 13 13 13 14 14 15 15
13 13 11 9 8 7 6 6 5 4 3 3 3 3 4 5 5 6 7 9 10 11 11 11 10 10 10 10 10 11 11 12 13 13 13 13 13 12 11 11 11 12 12 13 14 14 14 14 16 18 19 19 18 16 14 13 12 12 11 9 8 7 6 5 4 4 3 3 3 3 4 5 6 6 7 8 9 10 10 11 11 11 11 12 12
12 11 10 9 8 6 5 4 3 2 2 2 3 3 4 5 6 7 9 11 12 12 11 11 11 11 11 11 10 10 11 11 12 12 13 13 13 12 10 9 7 7 7 8 8 9 10 12 15 17 19 20 20 19 16 15 15 14 13 12 10 9 8 7 7 6 4 3 2 1 1 2 3 4 4 5 6 7 8 9 9 9 10 10 9
10 10 9 8 7 5 4 3 3 3 3 4 4 5 5 6 8 9 10 11 11 11 11 11 10 10 10 10 10 9 10 10 11 13 13 13 13 12 11 10 8 6 5 6 6 6 8 10 13 15 17 20 21 21 18 16 16 16 16 15 13 11 10 10 10 9 7 6 4 3 2 2 1 2 3 4 5 6 6 7 8 8 9 9 8
9 9 8 6 6 4 3 4 5 5 6 6 6 6 6 7 8 9 10 10 10 9 9 8 8 9 9 10 10 10 10 9 11 12 13 12 12 12 12 12 11 9 7 6 6 6 7 10 13 15 16 18 20 22 20 18 17 18 18 17 16 14 13 12 12 11 10 8 7 6 6 5 5 5 4 5 5 6 6 6 6 7 7 7 8
8 7 6 5 5 5 5 6 7 7 7 8 7 7 7 7 8 9 9 9 9 8 8 9 9 10 11 11 12 12 12 12 12 13 13 14 14 13 13 12 11 11 9 8 7 7 8 11 13 15 16 16 18 20 20 19 18 18 19 18 18 17 16 15 14 13 12 11 10 10 9 9 8 8 8 8 8 8 8 7 7 7 7 7 7
5 4 3 4 5 6 7 7 7 8 8 8 8 7 8 8 8 8 8 8 9 9 10 11 11 12 12 12 12 12 12 13 13 13 15 15 15 14 14 13 11 10 9 8 8 9 10 12 13 14 15 16 17 17 17 17 18 18 19 19 19 19 19 18 17 16 15 13 13 13 12 11 11 11 11 11 10 10 10 9 9 9 8 8 8
6 4 3 2 5 7 7 6 7 8 8 8 8 8 8 8 9 9 8 8 9 10 11 12 11 11 11 10 10 10 11 13 14 14 15 14 13 12 12 11 9 8 7 8 9 10 11 12 12 13 13 14 15 14 13 14 16 17 18 19 20 20 21 20 18 18 17 16 15 15 15 14 13 13 12 12 12 12 11 11 10 10 10 9 8
9 9 8 7 8 10 11 11 9 9 9 8 8 9 9 9 10 10 9 8 9 11 12 12 12 11 10 10 10 11 12 14 14 14 14 13 12 10 9 8 8 9 10 10 10 10 11 12 12 12 11 11 12 11 10 10 12 14 16 18 20 21 22 21 19 18 18 18 17 17 17 16 15 14 13 13 13 13 13 12 12 11 10 10 9
6 9 11 13 12 12 13 13 11 9 9 8 9 10 9 9 10 10 9 9 11 12 13 13 14 13 12 12 12 13 13 14 15 14 13 11 10 9 9 8 9 10 10 9 9 9 11 12 11 10 9 9 9 9 7 6 8 11 14 17 19 20 21 20 18 17 18 19 18 17 17 17 16 16 15 14 14 14 14 14 13 13 12 12 11
4 5 8 10 11 11 11 11 9 9 9 8 8 9 9 10 10 10 10 11 12 13 13 14 14 14 14 13 13 14 14 15 14 12 11 10 9 9 8 8 9 9 8 8 9 10 10 10 10 10 9 8 8 7 5 4 5 8 11 14 17 18 18 18 17 17 17 18 18 17 17 17 17 16 16 16 15 15 15 15 15 15 14 14 13
4 5 6 8 9 8 8 8 8 9 9 8 8 9 10 11 11 11 11 12 13 14 14 15 15 15 15 14 15 16 16 15 13 12 11 10 9 8 8 8 8 9 8 8 8 9 9 9 10 10 9 9 8 7 4 3 4 6 9 12 14 14 15 15 16 17 17 16 16 17 18 17 18 18 17 17 16 15 15 15 16 15 15 15 14
6 8 7 8 9 8 8 7 7 8 9 9 9 10 11 12 13 12 12 12 13 14 15 17 17 17 17 16 17 17 17 15 13 12 10 9 8 8 8 8 9 9 8 7 6 7 8 9 10 10 10 9 9 7 5 5 4 5 7 9 10 10 11 13 15 15 15 15 15 16 17 18 18 18 18 17 16 15 15 15 15 14 14 14 13
7 8 8 9 10 10 9 8 8 9 10 10 11 12 13 14 14 13 13 13 12 13 16 18 18 19 19 18 18 18 16 14 13 11 10 9 9 9 9 10 9 8 7 5 5 5 7 8 9 9 10 10 9 8 6 6 6 5 5 6 6 8 9 12 13 13 13 14 15 16 17 18 18 18 17 17 16 15 14 13 13 12 12 12 12
7 8 9 10 10 9 9 8 8 9 10 11 12 14 14 14 14 14 13 13 12 13 14 16 19 21 20 19 19 18 16 13 12 11 10 10 9 10 10 11 9 8 7 6 5 5 6 7 7 8 9 9 9 8 7 7 7 5 4 3 4 6 9 11 11 11 12 13 14 15 16 16 15 15 15 15 15 14 13 12 11 11 10 10 10
7 8 9 9 8 8 8 8 8 9 10 12 12 14 14 14 15 15 14 12 12 12 12 14 20 22 20 19 18 17 15 13 12 11 10 9 9 9 10 9 9 8 7 6 5 5 6 6 6 7 8 8 9 8 7 7 7 6 4 3 4 6 8 9 9 9 9 10 11 11 12 12 11 12 12 12 11 11 10 10 10 9 9 9 9
7 7 7 8 7 8 8 8 9 10 12 12 12 14 14 14 15 15 14 13 12 13 11 12 18 18 17 19 17 16 16 13 11 10 9 8 7 7 8 8 9 8 7 6 5 6 7 7 6 6 7 8 8 7 7 7 7 6 5 5 6 8 8 7 7 6 6 7 7 8 9 9 9 9 8 8 7 7 8 8 8 8 8 8 8
8 8 7 7 9 9 9 9 10 11 13 13 13 14 14 15 15 14 14 14 13 13 12 14 17 16 15 18 17 16 16 13 12 11 9 9 9 8 9 10 10 9 8 7 6 6 7 7 7 7 7 7 7 6 6 7 7 6 7 8 9 8 7 6 5 4 3 4 5 6 7 7 7 5 5 5 5 6 6 7 7 7 8 8 8
9 9 8 7 9 10 10 10 10 11 13 14 14 14 15 15 15 15 15 14 13 13 14 16 18 17 17 18 17 16 16 14 14 13 12 12 12 11 10 10 10 9 8 7 6 6 7 8 7 8 8 8 7 6 6 7 7 6 7 9 9 7 6 5 3 2 2 2 3 4 5 5 4 3 4 5 5 6 6 7 7 8 8 8 8
10 10 9 8 8 10 10 10 10 12 13 13 13 15 15 15 15 15 15 14 14 13 15 17 18 19 18 17 17 16 16 15 15 13 13 13 13 12 11 10 10 9 8 7 6 6 7 7 7 8 8 8 8 6 6 7 7 6 6 6 6 5 4 4 2 1 0 1 2 3 4 3 3 3 4 4 5 5 5 6 7 8 9 9 9
9 9 9 8 7 9 9 9 10 12 13 13 12 14 15 15 16 16 15 14 14 14 16 18 18 19 19 18 17 17 16 15 15 13 13 13 13 12 12 11 10 10 9 8 7 6 7 7 7 8 8 8 9 8 8 7 7 7 6 5 5 4 4 3 2 1 0 1 2 2 2 2 3 3 3 4 4 4 4 5 6 7 8 9 8
7 8 8 8 7 8 9 8 9 11 13 13 13 14 15 16 16 15 15 14 13 13 14 16 17 18 18 17 16 14 14 14 14 13 13 13 13 13 12 11 10 10 10 9 8 7 7 8 8 8 8 7 8 9 9 8 7 6 5 5 5 5 3 2 2 1 0 0 0 1 2 2 3 3 4 4 4 4 5 5 5 6 7 7 7
7 7 8 8 8 8 8 7 7 9 12 13 13 13 14 14 14 14 14 14 12 12 12 13 13 13 13 12 12 12 13 13 14 14 14 14 14 13 12 12 11 10 10 10 9 8 8 9 9 8 7 7 8 10 9 8 6 5 5 5 5 3 1 1 1 1 1 1 0 2 2 3 4 4 5 5 5 5 5 5 6 6 6 7 7
7 7 7 8 8 8 8 7 7 8 10 12 11 10 11 12 13 14 14 12 11 11 11 10 9 9 9 10 10 11 12 13 14 15 15 15 14 13 12 12 11 10 10 10 9 8 9 10 10 9 8 7 9 10 9 8 6 5 5 5 4 3 2 2 2 1 2 1 2 3 3 3 4 5 5 5 5 4 5 6 7 6 6 6 6
7 7 7 9 9 9 9 8 7 8 10 10 10 10 11 12 14 15 13 12 11 10 9 9 8 8 8 9 9 10 11 12 12 13 13 13 13 13 12 12 11 10 10 10 9 8 9 9 9 9 8 8 9 10 9 9 7 6 6 5 4 4 3 2 2 1 2 2 3 3 4 4 5 5 6 6 6 5 6 7 6 6 6 7 8
8 8 9 9 9 10 10 8 9 10 12 12 13 14 15 17 17 15 13 12 11 9 9 9 8 7 7 7 7 7 8 9 9 10 11 12 12 11 11 11 11 10 10 10 8 8 8 9 9 9 8 8 9 10 10 9 8 6 5 5 5 4 3 3 2 2 2 2 3 4 4 5 5 6 6 6 6 5 6 5 5 6 7 8 10
10 9 9 9 10 9 8 9 11 13 14 15 17 18 19 19 18 15 13 12 10 10 9 7 7 6 6 6 6 5 6 6 7 8 9 10 9 9 10 10 10 10 11 10 9 9 9 10 10 10 9 9 9 10 10 9 8 7 6 6 6 5 4 4 3 3 2 3 4 4 5 6 6 6 6 5 5 5 5 5 5 6 8 9 10
11 10 10 10 11 9 8 10 13 14 16 18 19 20 19 18 16 15 14 13 12 11 9 7 6 6 5 5 4 3 3 3 4 5 7 7 8 9 9 9 9 10 11 11 11 10 10 11 11 11 11 10 10 10 10 9 9 8 7 7 7 6 6 6 5 4 3 3 4 5 6 6 6 7 7 7 7 7 7 7 8 8 9 10 10
12 12 12 13 12 10 10 11 14 15 16 18 19 18 17 15 14 14 14 13 12 11 10 9 7 6 5 4 4 3 2 1 1 3 5 6 7 8 8 8 9 9 10 11 11 11 11 11 12 12 12 11 11 10 9 9 8 8 8 7 7 7 7 6 6 5 4 4 5 6 7 7 7 8 9 9 10 10 9 9 10 10 10 10 10
14 14 15 15 13 12 11 12 14 15 15 17 17 16 16 16 16 16 14 13 12 10 9 8 7 6 4 4 4 4 4 4 2 1 3 5 7 8 8 8 8 9 10 10 11 11 11 12 12 12 12 12 11 9 9 9 8 8 8 8 8 8 7 6 6 5 4 4 5 6 7 7 8 9 10 11 10 10 10 10 11 11 10 10 9
16 17 18 16 15 13 13 13 14 14 16 17 17 17 18 19 19 18 16 15 13 11 8 7 6 4 3 3 4 4 4 4 3 2 1 2 5 7 9 9 9 9 9 10 11 11 11 11 12 12 12 11 11 10 10 10 10 10 9 9 9 8 8 7 6 5 3 4 5 7 7 7 8 9 10 11 10 9 10 10 10 10 9 9 9
18 19 19 17 16 15 14 14 13 14 17 19 19 20 21 21 20 19 17 15 13 11 8 7 5 4 2 3 3 4 4 3 2 2 2 2 3 5 7 9 10 10 10 10 10 10 9 10 11 12 12 12 11 11 11 11 11 11 10 9 9 8 7 7 6 5 4 4 6 6 7 8 8 9 10 10 9 8 9 9 9 8 9 9 8
20 21 20 18 17 16 15 14 13 16 19 20 21 21 21 21 19 17 16 14 12 10 8 6 4 3 2 2 4 5 6 5 5 4 3 3 3 3 4 7 10 11 12 11 10 10 9 9 11 13 13 12 12 12 11 12 12 10 9 9 8 7 6 6 6 6 5 5 6 6 7 8 8 8 9 9 8 8 8 8 7 8 8 8 7
22 22 21 18 18 17 16 15 15 17 21 21 21 22 21 21 19 17 16 13 10 9 7 5 3 2 1 4 6 6 6 6 7 7 6 5 4 3 4 5 8 11 13 13 12 11 10 10 11 12 13 13 12 11 11 11 11 10 9 8 7 6 6 6 6 7 7 6 6 6 7 7 7 8 8 8 8 8 7 7 7 7 7 7 6
Wind_Direction
233 224 215 206 194 188 191 187 176 173 178 187 193 200 207 213 218 220 219 223 234 254 295 322 330 340 13 37 52 58 296 165 165 167 166 164 156 148 137 126 124 124 117 110 104 100 96 91 86 84 82 82 79 76 73 71 68 66 65 63 62 62 63 63 65 68 68 65 65 67 71 75 77 82 88 93 97 99 102 105 109 108 107 108 106
227 220 219 211 194 191 195 191 180 176 182 190 196 202 207 209 214 217 216 217 225 238 254 272 278 291 333 42 74 117 178 177 174 172 168 165 159 151 142 131 129 130 124 117 111 106 102 94 89 86 85 83 80 78 77 75 71 69 68 66 65 65 66 66 67 68 68 66 66 67 70 76 79 82 86 89 91 93 95 99 107 112 113 112 108
204 216 224 213 197 196 197 194 185 181 186 193 199 204 206 208 212 215 214 214 218 228 235 244 249 253 270 230 122 149 178 182 179 176 169 165 162 155 146 135 133 136 131 124 118 114 109 100 94 90 87 85 82 81 78 77 74 71 69 68 68 68 68 69 69 69 69 66 65 67 69 74 79 83 85 86 87 88 90 94 100 108 114 113 108
193 204 218 214 205 201 197 196 190 185 190 196 203 206 206 207 211 214 212 213 213 220 226 232 235 237 246 221 160 164 180 184 181 177 170 166 164 159 152 141 139 142 138 132 126 122 116 108 101 95 91 88 85 82 79 78 76 73 70 70 71 72 71 71 72 71 70 69 65 65 68 71 76 81 84 86 86 87 87 90 95 100 107 108 106
199 201 213 220 215 203 196 196 192 188 193 200 204 206 207 208 211 212 210 211 210 215 219 221 223 226 230 219 189 173 183 186 183 176 171 170 167 164 158 149 146 148 147 141 134 129 125 117 109 101 95 91 87 84 81 80 79 76 73 71 72 74 74 74 74 73 72 71 67 65 66 69 72 76 80 84 85 86 87 88 91 94 96 98 99
214 216 220 223 216 204 196 196 193 191 197 201 204 205 207 209 212 212 209 210 209 212 213 214 214 214 218 216 202 179 183 187 185 178 174 174 170 167 165 159 154 156 156 151 143 138 135 127 117 109 101 95 92 89 84 82 81 79 76 74 74 75 76 76 76 76 75 74 71 66 66 68 70 72 75 78 81 83 85 86 87 88 88 88 88
219 222 222 220 212 201 196 195 195 194 199 202 203 205 207 211 211 211 211 212 211 210 209 210 208 208 212 213 208 188 184 186 185 182 178 178 174 170 172 171 164 166 166 160 153 146 145 137 126 117 108 102 99 95 91 87 83 81 80 77 75 76 77 77 77 78 77 76 74 70 68 69 69 71 72 74 76 78 80 82 83 83 84 84 84
220 221 217 212 201 195 195 194 196 196 199 200 202 205 209 211 211 212 212 213 213 212 210 208 206 205 209 212 209 194 185 184 185 186 183 182 179 175 180 182 176 177 176 170 164 157 155 147 136 127 118 113 109 103 97 92 84 82 83 80 79 78 78 79 79 78 78 78 77 73 71 70 70 71 72 73 74 75 76 77 79 80 80 80 80
220 218 210 200 190 188 192 194 196 198 200 199 201 205 208 211 212 214 213 216 216 216 214 210 207 207 208 211 209 200 190 185 187 192 188 186 184 180 187 194 189 188 186 181 176 169 166 160 150 138 131 126 119 112 104 96 86 84 85 84 83 81 79 80 80 79 78 78 78 76 73 71 70 71 72 73 74 75 76 76 77 77 77 78 78
217 212 201 190 184 183 188 192 196 199 200 197 200 204 207 211 213 216 218 220 221 222 220 213 209 208 209 213 214 205 196 192 193 196 193 191 189 184 194 204 201 197 195 191 187 182 177 172 165 154 146 139 131 123 114 104 93 91 90 87 87 84 81 81 82 81 79 78 78 78 76 73 71 71 72 73 74 74 75 75 76 76 76 77 77
211 202 191 183 179 178 182 187 193 197 196 195 197 199 202 207 212 218 223 226 228 229 225 219 213 211 211 215 218 209 202 201 199 199 198 197 195 192 200 210 210 206 202 199 196 193 190 187 180 170 163 155 144 135 128 118 107 101 96 90 89 86 84 84 84 83 82 81 80 80 78 77 74 72 71 71 72 73 73 74 74 75 75 75 75
200 189 182 177 174 175 179 183 188 194 192 191 193 193 197 201 206 213 221 227 231 232 229 225 218 215 216 217 219 215 208 206 206 204 203 204 203 201 205 214 218 216 212 209 206 203 202 201 196 186 177 170 158 146 140 135 125 117 108 96 93 91 87 86 87 85 84 84 82 81 79 78 77 75 73 70 69 70 71 71 72 72 73 73 73
185 176 173 169 169 172 176 180 185 190 189 189 192 193 199 200 200 205 213 222 229 232 229 227 224 220 220 220 220 219 214 211 213 209 207 208 208 208 210 216 222 225 223 220 217 214 213 212 209 201 191 184 172 157 150 149 146 137 128 111 102 101 94 87 86 87 85 84 83 81 79 78 77 76 74 72 70 69 69 69 69 69 69 70 70
172 167 163 162 164 169 171 176 182 188 190 191 195 199 204 201 200 202 209 217 225 229 230 230 229 225 223 223 222 222 219 216 217 215 213 211 211 212 214 218 222 226 229 229 227 226 225 224 222 216 207 197 186 172 162 162 163 156 147 138 124 118 107 94 87 88 87 84 84 83 82 80 78 75 74 73 71 69 69 68 67 67 66 66 67
159 158 156 157 161 167 170 176 181 188 192 195 199 207 206 201 201 202 209 216 223 227 229 231 229 227 224 223 223 223 222 219 219 220 218 213 213 214 216 220 224 227 229 232 232 232 234 235 234 229 223 214 204 190 178 174 178 174 162 161 151 142 126 105 95 91 90 89 86 85 84 82 80 77 74 72 70 68 66 66 65 65 64 64 64
151 152 152 155 162 166 170 174 179 188 195 197 200 208 207 203 204 206 213 218 224 227 230 231 229 226 222 221 220 221 222 220 219 219 220 215 213 214 215 218 225 230 230 232 234 234 237 240 242 240 236 229 220 209 197 188 188 193 180 175 176 168 153 125 110 99 94 94 90 87 85 83 81 78 75 72 69 66 64 62 61 61 61 61 61
152 153 155 159 163 163 168 173 181 193 198 198 200 206 207 207 209 213 219 220 226 229 231 232 230 227 223 221 219 218 218 218 218 217 218 214 210 211 213 213 220 227 230 233 235 236 239 242 247 249 246 240 232 222 216 206 199 205 200 189 191 193 182 161 140 117 102 97 95 92 89 84 80 78 74 71 68 64 61 59 57 56 55 55 56
154 157 160 162 162 162 169 177 188 195 196 199 203 212 213 215 220 222 223 219 222 225 229 230 229 227 224 222 220 218 216 216 215 215 214 210 207 206 208 211 217 224 229 234 237 240 243 246 252 255 252 248 243 232 226 223 216 215 214 205 201 205 208 198 183 156 129 112 103 100 97 89 80 74 70 65 62 59 57 55 53 51 50 49 49
160 161 162 161 164 169 172 179 186 188 193 208 220 229 226 226 229 229 222 215 215 219 224 226 226 228 229 229 224 216 213 212 211 211 209 205 202 198 197 203 210 219 225 231 236 241 246 251 255 258 257 253 250 242 232 231 230 227 225 220 212 210 216 219 216 202 181 161 135 120 109 95 81 70 62 55 51 50 50 49 47 46 45 44 45
165 161 165 167 170 173 171 174 179 189 213 234 245 247 243 233 230 226 220 215 213 216 221 225 230 233 234 233 228 218 213 208 204 204 202 199 195 187 179 177 183 198 211 217 222 231 243 256 263 264 261 256 253 248 239 234 235 235 234 232 226 219 220 225 229 229 223 215 206 183 147 108 78 60 51 43 38 36 36 37 38 38 37 36 37
171 167 171 173 175 177 173 178 192 217 235 241 248 251 249 236 230 227 222 219 215 217 222 223 228 231 228 227 225 215 210 206 201 200 197 192 187 179 168 160 161 175 195 203 205 220 244 265 275 273 266 260 255 251 245 238 237 238 239 239 236 231 228 230 233 236 239 241 245 249 258 266 298 348 4 8 10 10 13 17 19 23 24 25 26
179 178 183 185 193 202 204 206 209 221 234 240 244 247 249 239 234 234 227 222 215 214 219 219 220 221 219 219 216 208 208 210 203 199 195 189 184 176 167 164 171 181 191 204 219 238 259 275 279 276 271 265 259 254 249 242 239 239 241 242 243 241 238 238 238 240 244 249 254 259 268 276 284 297 310 321 330 337 343 348 351 357 3 8 9
186 190 197 207 213 221 229 226 221 227 235 240 243 242 242 236 233 235 225 216 210 210 216 215 209 209 213 214 216 218 218 214 207 203 198 194 191 184 178 178 182 188 195 211 240 260 274 282 280 277 274 270 265 259 254 247 242 241 242 244 247 248 247 246 245 246 248 251 257 261 266 274 283 291 298 303 311 318 322 325 326 330 335 342 347
185 205 222 243 247 244 241 237 234 238 240 242 243 237 234 228 222 224 221 216 212 213 217 218 213 212 215 215 219 223 215 209 206 204 200 194 190 188 188 191 191 196 204 221 254 269 276 282 280 278 276 272 269 266 262 254 247 244 243 245 247 250 252 253 252 253 255 255 260 264 267 273 280 288 295 299 303 308 311 315 316 317 318 321 326
216 232 231 265 291 286 282 274 259 253 250 244 236 227 227 224 217 215 218 221 220 220 221 222 219 216 219 213 209 206 199 197 196 194 196 192 186 186 190 195 201 220 236 251 267 270 272 277 277 276 276 272 269 269 268 261 253 247 244 244 246 249 252 254 255 257 261 262 264 267 271 275 279 284 290 294 297 301 305 308 308 308 309 310 312
231 240 239 255 285 298 305 297 280 268 258 242 228 222 222 223 219 216 217 223 227 225 219 217 213 208 211 205 197 199 198 194 189 187 190 190 190 195 203 214 231 249 258 261 263 265 269 272 273 272 269 266 265 265 265 261 255 249 245 242 243 245 249 253 255 257 261 265 268 270 274 276 279 282 286 290 294 297 299 301 302 303 303 303 304
242 252 251 253 262 273 287 290 282 273 261 243 227 220 221 224 220 219 227 232 230 226 216 210 206 200 199 198 197 200 199 194 189 186 187 192 202 211 222 233 242 249 253 256 259 264 266 266 264 262 256 253 255 257 255 252 246 243 241 239 239 242 246 251 255 257 258 262 267 270 274 277 280 283 285 289 291 294 296 298 299 300 300 299 298
242 258 253 243 244 254 268 281 278 274 269 253 232 221 221 225 224 225 238 241 229 222 217 209 204 200 194 194 198 195 192 191 191 190 194 204 213 221 232 240 246 249 251 254 259 261 260 256 252 248 241 236 239 242 237 225 225 231 234 234 235 238 243 249 254 256 257 259 263 268 273 277 280 283 285 287 289 292 294 296 298 300 300 298 297
210 228 240 231 235 248 259 273 274 275 272 255 233 223 223 226 228 228 236 238 219 211 216 209 201 200 195 193 195 191 190 194 197 201 203 210 220 230 238 247 254 254 254 256 259 259 254 247 241 236 231 224 224 225 209 185 201 218 225 228 231 235 241 247 251 254 256 258 262 267 272 276 279 281 284 287 290 293 295 297 298 299 299 297 293
204 212 226 229 233 242 250 256 257 260 258 247 236 230 230 229 228 227 233 233 218 212 214 210 202 198 194 192 193 193 196 200 202 204 207 217 230 241 250 257 260 258 255 255 256 254 245 237 231 228 226 219 217 214 195 177 192 213 221 224 228 233 238 244 248 251 256 260 263 266 269 272 275 278 282 285 288 291 294 296 297 298 297 293 289
218 215 227 240 241 238 238 238 239 244 243 238 235 235 233 230 225 224 234 233 227 223 212 209 207 198 192 191 193 197 200 203 204 205 214 228 241 253 261 260 257 255 251 247 245 237 228 226 224 224 222 218 214 208 192 181 193 212 219 219 224 231 234 239 245 249 254 257 260 262 264 267 271 276 279 281 283 287 291 293 295 295 293 290 287
225 221 233 249 247 234 227 227 234 238 234 231 232 234 229 230 229 227 234 229 224 219 208 212 211 198 189 190 195 200 200 202 205 210 221 233 245 254 257 255 253 251 247 245 238 223 218 220 221 219 216 214 212 206 196 190 199 207 205 201 212 228 232 237 242 246 250 254 259 262 264 267 271 275 277 278 282 284 287 290 292 294 293 290 288
238 233 240 252 246 227 226 233 241 236 230 231 233 234 228 229 231 229 227 220 218 216 213 221 212 195 185 189 198 203 201 200 204 211 222 231 241 247 251 253 254 250 246 245 238 224 219 220 218 216 213 210 208 206 201 197 202 204 195 191 206 223 228 232 237 240 247 254 261 266 268 271 275 279 281 281 283 285 286 287 289 291 290 288 288
250 251 249 250 236 230 240 247 250 239 231 231 233 238 235 229 229 228 221 216 220 220 218 218 210 200 189 191 200 205 205 205 208 212 220 228 235 244 253 255 255 251 248 250 244 226 217 215 212 212 213 212 208 202 200 203 204 200 199 202 211 221 223 227 233 236 248 257 264 270 271 275 280 283 283 284 289 293 294 290 288 288 288 290 297
242 250 244 237 233 241 252 255 254 241 230 227 230 237 236 229 226 223 216 215 221 217 210 208 207 208 201 198 205 207 208 217 224 226 230 235 237 243 253 255 253 252 252 254 244 219 210 212 216 216 213 214 211 197 192 203 205 203 213 213 207 212 221 229 238 243 259 270 271 271 270 272 275 281 292 298 302 306 308 301 295 294 295 300 304
232 236 236 234 238 252 260 259 255 238 228 224 223 228 228 226 222 216 212 216 220 212 205 205 205 207 206 206 210 211 215 226 235 238 240 242 242 243 248 250 251 251 251 251 239 214 207 212 220 223 216 213 212 198 188 198 207 215 221 211 200 203 218 227 233 239 268 281 271 263 263 268 276 295 308 311 315 319 320 315 310 307 306 307 308
231 232 234 237 241 254 259 254 247 235 228 225 219 218 219 218 214 211 213 216 216 207 203 205 205 205 207 210 213 217 225 234 239 240 242 244 244 243 244 245 247 247 245 245 237 215 207 213 221 222 218 214 211 199 191 197 207 216 215 201 201 210 213 209 202 191 233 298 278 264 267 284 308 325 326 327 331 331 327 320 316 314 313 314 313
237 235 235 239 237 240 246 241 236 234 233 229 218 209 208 208 206 207 213 213 207 202 200 202 203 205 209 214 220 228 235 237 237 239 243 247 247 245 242 241 241 239 238 238 233 218 211 215 221 219 217 218 213 201 194 197 201 204 206 205 214 217 200 180 168 178 238 315 293 291 303 333 345 345 347 348 345 338 325 316 315 318 319 318 316
241 238 237 234 222 222 237 236 228 234 236 231 219 207 204 205 205 206 205 199 192 189 190 193 198 204 211 218 224 231 234 234 236 241 246 249 248 245 240 239 238 235 235 236 231 222 216 216 221 219 216 217 208 195 189 195 198 194 196 201 211 213 195 168 155 177 200 158 314 349 353 344 337 335 343 347 340 332 325 325 330 331 330 328 329
238 238 236 224 215 217 229 226 215 224 230 229 223 212 207 207 205 198 190 181 175 170 168 175 187 197 206 216 225 232 236 240 242 244 244 245 245 243 239 237 237 233 232 235 232 229 222 218 220 218 215 211 194 184 186 195 194 190 195 195 202 210 180 150 143 149 175 169 321 331 324 316 319 327 335 334 329 330 329 335 343 343 350 348 343
238 237 232 221 218 215 207 201 197 205 216 223 221 208 205 205 193 180 173 170 167 162 159 165 179 195 208 221 232 240 243 242 240 238 237 239 240 239 236 234 233 231 230 232 233 232 226 221 222 219 216 209 194 186 189 197 190 184 195 195 205 214 174 160 158 160 199 231 296 298 294 305 317 324 328 321 315 311 300 315 332 342 1 358 347
229 229 226 223 220 208 195 185 182 191 196 197 192 185 183 179 170 166 164 165 165 164 169 178 191 205 213 222 229 237 243 239 234 230 227 232 235 232 231 231 230 230 229 229 228 227 225 221 221 221 216 206 197 193 191 193 190 190 201 208 225 220 181 176 187 193 225 256 277 284 291 303 312 313 313 307 304 297 290 304 321 328 341 342 339
225 219 218 221 214 202 193 179 173 178 175 168 166 166 165 162 162 163 165 166 166 169 177 185 193 199 206 214 218 229 245 242 233 226 222 229 234 231 230 230 230 231 229 227 224 223 226 225 219 217 213 203 195 191 188 189 191 198 213 220 226 212 185 196 207 204 230 267 277 286 297 305 314 314 311 306 303 302 300 306 315 318 324 325 327
229 221 216 214 202 194 189 173 171 173 167 161 161 163 164 165 165 166 165 164 163 165 171 174 178 184 195 202 203 213 232 232 224 221 219 222 229 229 229 229 230 230 229 227 226 225 227 225 217 213 212 207 199 193 192 192 193 201 214 219 218 210 207 219 223 222 247 288 305 310 308 312 324 328 328 326 320 315 311 311 313 315 317 316 318
225 219 210 200 191 188 183 174 172 171 167 165 166 167 169 170 168 163 158 154 153 152 150 147 148 155 164 167 171 186 205 211 210 210 211 215 222 226 227 225 226 228 229 229 229 229 231 224 214 213 217 216 214 209 203 200 201 207 214 217 216 216 225 235 238 242 256 286 305 308 307 313 323 326 330 332 327 321 320 320 318 317 316 315 314
218 212 201 191 186 184 181 176 171 170 171 171 170 168 168 166 161 154 148 147 147 142 138 138 134 127 121 115 110 104 97 112 202 211 216 221 224 228 229 225 225 229 231 230 228 229 231 226 219 219 221 223 225 221 214 213 215 216 216 217 218 225 235 240 245 251 256 274 290 297 302 310 315 315 318 323 323 320 320 321 320 319 318 316 315
213 206 196 189 184 180 179 176 171 171 174 172 168 165 163 159 154 150 148 148 144 141 142 139 130 121 107 93 82 74 67 60 40 335 245 234 232 232 232 228 227 231 232 229 228 228 229 227 223 221 220 223 228 225 222 225 226 224 222 222 224 231 239 241 246 248 255 279 293 296 301 305 305 304 308 313 314 315 319 319 319 319 318 320 322
209 204 196 188 182 177 177 177 174 173 174 170 165 163 160 157 155 154 154 152 147 147 147 139 132 126 105 72 54 49 50 49 40 18 336 264 246 239 234 229 226 228 229 227 227 229 231 229 225 221 218 223 227 225 227 232 232 229 224 226 233 238 241 242 246 249 259 286 293 296 300 300 296 295 298 300 302 310 317 318 319 321 323 326 329
206 202 195 187 180 177 177 180 178 173 173 170 165 163 161 159 159 159 156 153 151 151 149 146 141 127 93 46 16 5 359 353 348 341 339 319 280 256 243 232 226 223 223 224 224 223 226 228 225 221 222 227 229 226 231 237 236 232 223 225 236 245 246 244 245 252 262 279 292 298 299 296 291 290 290 292 298 311 317 318 322 326 329 331 335
204 199 192 185 181 178 177 181 181 175 174 172 168 167 164 162 162 160 157 156 156 154 154 156 144 118 78 16 353 343 333 318 304 289 278 287 297 288 261 239 228 223 219 219 219 218 218 222 224 223 224 229 230 229 233 241 245 241 233 232 236 239 239 232 233 248 262 279 294 295 291 288 284 281 281 287 301 312 314 319 326 332 334 336 342
202 196 188 184 182 180 179 183 182 176 174 173 171 170 167 165 164 161 160 162 161 160 160 159 145 113 5 340 336 333 328 315 301 283 265 262 270 283 281 252 230 223 220 217 216 215 215 217 220 221 223 227 230 231 235 243 250 250 243 237 230 222 224 226 233 252 268 284 294 289 281 278 277 280 283 291 302 309 313 322 331 335 338 340 344
Height
3146 3147 3148 3147 3147 3147 3148 3149 3149 3150 3151 3152 3153 3154 3155 3156 3157 3158 3159 3159 3160 3161 3162 3163 3163 3164 3164 3164 3164 3164 3164 3164 3165 3166 3166 3167 3167 3168 3168 3168 3169 3169 3170 3170 3171 3171 3172 3172 3172 3172 3172 3172 3172 3172 3172 3172 3171 3171 3170 3170 3169 3168 3167 3166 3165 3163 3162 3161 3161 3160 3159 3159 3158 3158 3158 3159 3160 3161 3161 3162 3163 3163 3164 3165 3165
3146 3147 3147 3147 3147 3147 3148 3148 3148 3149 3150 3152 3153 3154 3155 3156 3157 3158 3158 3159 3160 3161 3162 3163 3164 3164 3164 3164 3164 3164 3164 3165 3165 3166 3166 3167 3168 3168 3169 3169 3170 3170 3171 3171 3172 3172 3173 3173 3174 3174 3174 3173 3173 3173 3173 3173 3173 3172 3172 3172 3171 3170 3169 3168 3167 3165 3164 3164 3163 3163 3162 3161 3160 3160 3160 3161 3161 3162 3163 3163 3164 3164 3165 3166 3166
3145 3146 3147 3146 3146 3147 3148 3148 3148 3149 3150 3152 3153 3154 3155 3156 3157 3158 3158 3159 3160 3161 3162 3163 3163 3164 3164 3164 3165 3165 3165 3165 3166 3166 3167 3168 3168 3169 3169 3170 3170 3171 3171 3172 3172 3173 3174 3174 3175 3175 3175 3175 3175 3175 3175 3174 3174 3174 3174 3174 3173 3172 3172 3170 3169 3168 3166 3166 3166 3165 3164 3163 3162 3162 3162 3163 3163 3164 3164 3164 3165 3166 3166 3167 3167
3144 3145 3146 3146 3146 3147 3147 3148 3148 3148 3150 3151 3152 3153 3155 3156 3157 3157 3158 3159 3160 3160 3161 3162 3163 3163 3164 3164 3165 3165 3165 3166 3166 3167 3167 3168 3169 3169 3170 3170 3171 3171 3172 3172 3173 3174 3174 3175 3176 3176 3176 3176 3176 3176 3176 3176 3176 3176 3176 3175 3175 3174 3174 3173 3171 3170 3169 3168 3168 3168 3166 3166 3165 3164 3164 3164 3165 3165 3166 3166 3167 3167 3167 3168 3168
3144 3145 3145 3146 3146 3146 3147 3147 3147 3148 3149 3151 3152 3153 3154 3155 3156 3157 3158 3159 3159 3160 3161 3162 3162 3163 3164 3164 3165 3165 3165 3166 3166 3167 3168 3168 3169 3170 3170 3171 3171 3172 3173 3173 3174 3174 3175 3176 3176 3177 3177 3177 3177 3177 3177 3177 3177 3177 3177 3177 3177 3176 3176 3175 3174 3172 3171 3170 3170 3170 3169 3168 3168 3167 3167 3166 3167 3167 3167 3168 3168 3168 3169 3169 3169
3144 3144 3145 3145 3146 3146 3147 3147 3147 3148 3149 3150 3152 3153 3154 3155 3156 3157 3158 3159 3159 3160 3161 3161 3162 3163 3164 3164 3165 3165 3165 3166 3167 3167 3168 3169 3169 3170 3170 3171 3172 3172 3173 3174 3174 3175 3176 3176 3177 3177 3178 3178 3178 3179 3178 3178 3179 3179 3179 3179 3178 3178 3177 3177 3176 3175 3173 3172 3172 3172 3172 3171 3170 3170 3169 3169 3169 3169 3169 3169 3170 3170 3170 3170 3170
3144 3144 3144 3145 3145 3146 3146 3146 3147 3147 3148 3150 3151 3153 3154 3155 3156 3157 3158 3158 3159 3160 3161 3161 3162 3163 3164 3164 3165 3165 3165 3166 3167 3168 3168 3169 3170 3170 3171 3171 3172 3173 3173 3174 3175 3175 3176 3177 3177 3178 3178 3179 3180 3180 3179 3179 3180 3180 3180 3180 3180 3180 3179 3178 3178 3177 3176 3174 3174 3174 3174 3174 3173 3172 3172 3171 3171 3171 3171 3171 3171 3171 3171 3172 3172
3143 3143 3144 3144 3145 3145 3146 3146 3146 3147 3148 3150 3151 3152 3153 3154 3155 3156 3157 3158 3159 3160 3161 3161 3162 3163 3164 3164 3165 3165 3166 3166 3167 3168 3169 3169 3170 3170 3171 3171 3173 3173 3174 3174 3175 3176 3176 3177 3178 3178 3179 3180 3180 3180 3180 3180 3181 3181 3181 3182 3182 3181 3181 3180 3180 3179 3178 3177 3176 3176 3176 3176 3176 3175 3175 3174 3174 3174 3174 3174 3174 3173 3173 3173 3173
3142 3143 3143 3143 3144 3145 3145 3146 3146 3147 3149 3150 3151 3152 3153 3154 3155 3156 3157 3158 3159 3160 3160 3161 3162 3163 3164 3164 3165 3165 3166 3166 3167 3168 3169 3170 3170 3171 3171 3171 3173 3173 3174 3174 3175 3176 3177 3177 3178 3179 3180 3181 3181 3181 3181 3181 3182 3182 3183 3183 3183 3183 3182 3182 3181 3181 3180 3179 3178 3178 3178 3178 3178 3178 3177 3177 3177 3176 3176 3176 3176 3176 3175 3175 3175
3142 3142 3142 3143 3144 3145 3145 3146 3147 3148 3149 3150 3151 3152 3153 3154 3155 3156 3157 3158 3159 3159 3160 3161 3162 3163 3164 3164 3165 3165 3166 3167 3167 3168 3169 3170 3171 3171 3171 3171 3172 3173 3174 3175 3175 3176 3177 3178 3178 3179 3180 3181 3182 3182 3182 3182 3183 3183 3184 3184 3184 3184 3184 3184 3183 3182 3182 3181 3181 3180 3180 3180 3180 3180 3180 3179 3179 3179 3179 3178 3178 3178 3178 3178 3177
3141 3141 3142 3143 3144 3144 3145 3146 3146 3147 3149 3150 3151 3152 3153 3154 3155 3155 3156 3157 3158 3159 3160 3161 3162 3163 3163 3164 3165 3165 3166 3167 3167 3168 3169 3170 3171 3171 3170 3171 3172 3173 3174 3175 3176 3177 3177 3178 3179 3180 3180 3182 3182 3182 3182 3183 3183 3184 3185 3185 3185 3185 3186 3186 3185 3184 3183 3183 3183 3183 3182 3182 3182 3182 3182 3182 3181 3181 3181 3181 3181 3181 3180 3180 3180
3140 3141 3142 3142 3143 3143 3144 3145 3146 3147 3149 3150 3151 3152 3153 3154 3154 3155 3156 3157 3157 3158 3159 3160 3162 3163 3163 3164 3165 3165 3166 3167 3167 3168 3169 3170 3171 3171 3171 3171 3172 3173 3174 3175 3176 3177 3177 3178 3179 3180 3181 3182 3183 3183 3183 3184 3184 3185 3186 3186 3186 3186 3187 3187 3186 3186 3185 3185 3185 3184 3184 3184 3184 3184 3184 3184 3183 3183 3183 3183 3183 3183 3182 3182 3182
3140 3140 3141 3141 3142 3143 3144 3145 3146 3147 3148 3149 3151 3152 3153 3153 3154 3155 3156 3156 3157 3158 3159 3160 3161 3162 3163 3164 3164 3165 3166 3167 3167 3168 3169 3170 3171 3171 3171 3171 3172 3173 3174 3175 3176 3177 3177 3178 3179 3180 3181 3182 3183 3184 3184 3184 3185 3185 3186 3187 3187 3187 3188 3188 3187 3187 3186 3186 3186 3186 3186 3186 3186 3186 3186 3185 3185 3185 3185 3185 3185 3185 3184 3184 3184
3139 3139 3140 3141 3142 3142 3143 3145 3146 3147 3148 3149 3150 3151 3152 3153 3154 3155 3155 3156 3156 3157 3158 3160 3161 3162 3162 3163 3164 3164 3165 3166 3167 3168 3169 3170 3171 3171 3172 3171 3172 3173 3174 3175 3176 3177 3177 3178 3179 3180 3181 3183 3184 3184 3184 3185 3185 3186 3187 3187 3188 3188 3188 3188 3188 3188 3188 3188 3187 3187 3187 3187 3187 3187 3187 3187 3187 3187 3187 3187 3187 3187 3186 3186 3186
3138 3139 3140 3140 3141 3142 3143 3144 3145 3146 3148 3149 3150 3151 3152 3153 3153 3154 3155 3156 3157 3157 3158 3159 3160 3161 3162 3162 3163 3164 3165 3166 3167 3167 3168 3169 3170 3171 3171 3171 3172 3173 3174 3175 3175 3176 3177 3178 3179 3180 3182 3183 3184 3184 3185 3185 3186 3187 3187 3187 3188 3188 3189 3189 3189 3189 3189 3189 3189 3189 3189 3189 3189 3189 3189 3189 3189 3189 3189 3189 3189 3188 3188 3188 3188
3138 3139 3140 3141 3141 3142 3143 3144 3145 3146 3147 3149 3150 3150 3151 3152 3153 3154 3155 3156 3157 3158 3159 3159 3160 3160 3161 3162 3162 3163 3164 3165 3166 3167 3168 3169 3170 3171 3171 3171 3172 3173 3173 3174 3175 3176 3176 3177 3178 3180 3181 3183 3184 3185 3185 3186 3186 3187 3187 3188 3188 3189 3189 3190 3190 3190 3189 3189 3190 3190 3190 3190 3190 3190 3190 3190 3190 3190 3190 3190 3190 3190 3190 3190 3189
3138 3139 3140 3141 3141 3142 3143 3144 3145 3146 3147 3148 3149 3150 3151 3152 3153 3154 3155 3156 3157 3158 3158 3159 3159 3160 3160 3161 3162 3163 3164 3164 3165 3166 3167 3168 3169 3170 3170 3170 3170 3172 3173 3174 3174 3175 3176 3177 3178 3179 3181 3182 3183 3185 3185 3186 3187 3187 3187 3188 3188 3189 3190 3190 3190 3190 3190 3190 3190 3190 3190 3190 3191 3191 3191 3191 3191 3191 3191 3191 3191 3191 3191 3191 3191
3138 3139 3140 3141 3142 3143 3143 3144 3145 3146 3147 3148 3149 3150 3151 3152 3153 3154 3155 3156 3156 3157 3157 3158 3159 3159 3160 3161 3162 3162 3163 3164 3165 3165 3166 3167 3168 3169 3170 3170 3170 3171 3172 3173 3174 3175 3176 3176 3177 3179 3180 3181 3182 3184 3185 3186 3187 3187 3187 3188 3189 3189 3190 3190 3191 3190 3190 3190 3191 3191 3191 3191 3191 3191 3192 3192 3192 3192 3192 3192 3192 3192 3192 3192 3191
3138 3139 3140 3141 3142 3142 3143 3144 3145 3146 3147 3148 3149 3149 3150 3151 3152 3153 3154 3155 3155 3156 3156 3157 3158 3158 3159 3160 3161 3162 3163 3163 3164 3165 3166 3166 3167 3168 3169 3170 3170 3171 3172 3173 3174 3175 3175 3176 3176 3177 3179 3180 3181 3183 3185 3185 3186 3187 3187 3188 3189 3189 3190 3190 3191 3191 3191 3191 3191 3191 3191 3192 3192 3192 3192 3192 3192 3192 3192 3192 3192 3192 3192 3192 3192
3137 3139 3139 3140 3141 3142 3143 3144 3145 3147 3147 3148 3148 3149 3150 3150 3151 3152 3152 3153 3154 3155 3156 3156 3157 3158 3158 3159 3160 3161 3162 3163 3164 3165 3165 3166 3167 3168 3169 3170 3170 3171 3172 3173 3174 3174 3175 3175 3175 3176 3177 3179 3180 3181 3183 3185 3186 3186 3187 3187 3188 3189 3190 3190 3190 3190 3190 3191 3191 3191 3192 3192 3192 3192 3192 3193 3193 3193 3193 3193 3193 3193 3193 3193 3193
3137 3138 3139 3140 3141 3142 3143 3144 3146 3146 3147 3147 3147 3148 3149 3149 3150 3151 3151 3152 3153 3154 3155 3155 3156 3157 3158 3159 3160 3161 3162 3163 3164 3164 3165 3166 3166 3167 3168 3169 3170 3171 3172 3172 3173 3174 3174 3174 3174 3175 3176 3177 3178 3179 3182 3184 3185 3185 3186 3187 3188 3189 3189 3190 3190 3190 3190 3191 3191 3191 3192 3192 3192 3192 3192 3193 3193 3193 3193 3193 3193 3193 3193 3193 3193
3137 3137 3138 3139 3140 3141 3143 3144 3145 3146 3146 3146 3147 3148 3148 3149 3149 3150 3151 3152 3153 3153 3154 3155 3156 3157 3157 3158 3159 3160 3161 3163 3163 3164 3165 3166 3166 3167 3168 3169 3170 3171 3171 3172 3173 3174 3174 3173 3173 3174 3175 3176 3177 3178 3180 3183 3184 3184 3185 3186 3187 3188 3189 3189 3189 3189 3190 3191 3191 3191 3191 3191 3192 3192 3192 3192 3193 3193 3193 3193 3193 3193 3193 3193 3193
3137 3138 3138 3139 3140 3141 3141 3142 3144 3144 3145 3145 3146 3147 3147 3148 3149 3149 3150 3151 3152 3152 3153 3154 3155 3156 3156 3157 3158 3159 3160 3162 3163 3164 3164 3165 3166 3167 3168 3169 3170 3171 3171 3172 3172 3173 3173 3173 3173 3173 3174 3175 3175 3176 3179 3181 3182 3183 3184 3185 3186 3187 3187 3187 3188 3189 3190 3190 3190 3190 3191 3191 3191 3191 3191 3192 3192 3192 3193 3193 3193 3193 3193 3193 3193
3138 3138 3139 3139 3140 3140 3141 3142 3143 3143 3144 3145 3145 3146 3147 3147 3148 3149 3150 3150 3151 3152 3152 3153 3154 3155 3155 3156 3158 3158 3159 3160 3162 3163 3164 3164 3165 3166 3167 3169 3170 3171 3171 3172 3172 3172 3172 3172 3172 3172 3173 3174 3174 3175 3178 3180 3181 3182 3183 3184 3185 3185 3185 3186 3187 3188 3189 3189 3190 3190 3190 3190 3190 3191 3191 3191 3191 3192 3192 3192 3192 3192 3193 3193 3193
3137 3138 3138 3139 3140 3140 3141 3142 3142 3142 3143 3144 3144 3145 3146 3146 3147 3148 3149 3150 3150 3151 3152 3152 3153 3154 3154 3156 3157 3157 3158 3160 3161 3162 3163 3164 3165 3166 3167 3169 3170 3171 3171 3171 3171 3171 3171 3171 3171 3172 3173 3173 3173 3174 3176 3178 3179 3181 3182 3183 3184 3184 3183 3184 3185 3187 3188 3188 3188 3189 3189 3190 3190 3190 3190 3190 3190 3191 3191 3191 3191 3192 3192 3192 3192
3137 3138 3138 3139 3139 3140 3141 3142 3142 3141 3142 3142 3143 3144 3144 3145 3145 3147 3148 3148 3149 3150 3150 3151 3152 3152 3153 3155 3156 3157 3159 3160 3161 3162 3163 3164 3165 3166 3167 3168 3169 3170 3170 3170 3170 3170 3170 3170 3171 3171 3172 3172 3172 3173 3175 3176 3177 3179 3180 3181 3182 3181 3181 3182 3184 3186 3186 3186 3187 3187 3188 3189 3189 3189 3189 3189 3189 3190 3190 3190 3190 3190 3190 3191 3191
3136 3137 3137 3138 3139 3140 3142 3142 3141 3141 3141 3141 3142 3142 3143 3144 3144 3145 3146 3147 3148 3149 3149 3150 3151 3151 3152 3154 3156 3157 3158 3160 3161 3162 3163 3164 3165 3166 3167 3167 3168 3168 3168 3169 3169 3169 3169 3169 3170 3170 3171 3171 3171 3172 3174 3175 3176 3177 3178 3179 3179 3179 3180 3181 3183 3184 3185 3185 3185 3186 3187 3187 3188 3188 3188 3188 3188 3188 3188 3189 3189 3189 3189 3189 3189
3135 3136 3136 3137 3138 3140 3141 3141 3141 3140 3140 3140 3141 3141 3142 3143 3144 3145 3145 3146 3147 3148 3148 3149 3150 3151 3152 3154 3155 3157 3158 3160 3161 3161 3162 3163 3164 3164 3165 3166 3166 3167 3167 3167 3168 3168 3169 3169 3169 3170 3170 3171 3171 3172 3173 3174 3175 3175 3176 3176 3177 3178 3179 3180 3182 3182 3182 3183 3184 3184 3185 3186 3186 3187 3187 3186 3186 3186 3187 3187 3187 3187 3188 3188 3188
3135 3135 3136 3137 3138 3138 3139 3139 3139 3139 3139 3140 3140 3140 3141 3142 3143 3143 3145 3145 3146 3147 3147 3148 3149 3150 3152 3153 3155 3156 3158 3159 3160 3161 3161 3162 3163 3164 3164 3165 3165 3166 3166 3167 3167 3168 3168 3168 3168 3169 3170 3170 3170 3171 3173 3173 3174 3174 3174 3175 3176 3177 3179 3180 3180 3180 3181 3182 3183 3183 3184 3184 3185 3185 3185 3185 3185 3185 3185 3185 3186 3186 3186 3186 3186
3134 3135 3135 3136 3137 3137 3137 3137 3137 3138 3138 3138 3139 3139 3140 3141 3142 3142 3143 3144 3145 3146 3147 3148 3148 3149 3151 3152 3154 3155 3157 3158 3159 3160 3161 3162 3162 3163 3163 3164 3164 3165 3165 3166 3167 3167 3167 3167 3168 3168 3169 3169 3169 3170 3172 3172 3173 3173 3173 3174 3176 3177 3178 3179 3179 3179 3180 3181 3181 3182 3182 3183 3183 3183 3183 3183 3183 3183 3183 3184 3184 3184 3185 3185 3184
3133 3134 3135 3135 3135 3135 3135 3135 3136 3136 3137 3137 3137 3138 3138 3139 3140 3142 3142 3143 3145 3146 3146 3147 3148 3148 3149 3151 3153 3155 3156 3157 3158 3159 3160 3161 3162 3162 3162 3163 3163 3164 3165 3165 3166 3166 3166 3167 3167 3168 3168 3168 3169 3169 3171 3171 3172 3172 3173 3174 3176 3177 3177 3177 3177 3178 3179 3179 3180 3180 3181 3181 3182 3182 3182 3182 3182 3182 3182 3182 3183 3183 3183 3183 3183
3132 3133 3133 3134 3134 3134 3134 3134 3134 3135 3135 3135 3136 3136 3137 3138 3139 3140 3141 3142 3144 3145 3145 3146 3146 3147 3149 3150 3152 3154 3155 3157 3158 3159 3159 3160 3161 3161 3161 3162 3163 3163 3164 3165 3165 3166 3166 3166 3167 3167 3167 3168 3168 3169 3170 3170 3171 3171 3172 3174 3175 3176 3176 3176 3177 3178 3178 3178 3179 3179 3179 3180 3180 3181 3181 3181 3181 3181 3181 3182 3182 3182 3182 3181 3181
3131 3131 3132 3133 3134 3133 3133 3133 3133 3134 3134 3134 3135 3134 3135 3137 3138 3139 3140 3142 3143 3143 3144 3145 3146 3146 3147 3149 3151 3153 3155 3156 3157 3158 3159 3159 3160 3160 3161 3161 3162 3162 3163 3164 3165 3165 3166 3166 3166 3167 3167 3167 3167 3168 3169 3170 3170 3171 3172 3173 3174 3174 3175 3175 3176 3176 3177 3177 3178 3178 3179 3179 3179 3180 3180 3180 3180 3180 3181 3181 3181 3181 3181 3180 3180
3131 3131 3132 3133 3133 3133 3132 3133 3132 3133 3133 3133 3133 3134 3134 3136 3137 3138 3140 3141 3141 3142 3143 3145 3146 3146 3146 3148 3150 3152 3154 3156 3157 3158 3158 3159 3159 3160 3160 3160 3161 3162 3163 3163 3164 3165 3165 3165 3166 3166 3166 3167 3167 3168 3169 3170 3169 3170 3171 3172 3173 3173 3174 3174 3175 3176 3176 3177 3177 3178 3178 3178 3179 3179 3179 3179 3179 3180 3180 3180 3180 3180 3180 3180 3180
3130 3131 3131 3132 3132 3132 3131 3131 3131 3132 3132 3132 3133 3133 3134 3135 3136 3138 3139 3139 3140 3141 3142 3143 3145 3146 3146 3148 3150 3152 3154 3155 3156 3157 3158 3158 3158 3159 3160 3160 3160 3161 3162 3163 3163 3164 3164 3165 3165 3166 3166 3167 3167 3169 3169 3169 3169 3170 3171 3171 3171 3172 3173 3174 3174 3175 3175 3176 3176 3177 3177 3178 3178 3178 3178 3178 3179 3179 3179 3179 3179 3179 3179 3180 3181
3129 3129 3130 3130 3131 3130 3130 3130 3130 3130 3131 3131 3132 3133 3133 3134 3136 3137 3138 3139 3139 3140 3141 3142 3144 3145 3146 3148 3150 3152 3153 3155 3156 3157 3157 3157 3158 3159 3159 3159 3160 3161 3162 3162 3163 3163 3164 3164 3165 3165 3166 3167 3168 3169 3169 3169 3169 3169 3170 3171 3171 3171 3172 3173 3174 3174 3175 3175 3176 3176 3177 3177 3177 3178 3178 3178 3179 3179 3179 3179 3178 3178 3179 3180 3180
3127 3128 3128 3129 3129 3129 3128 3129 3128 3128 3129 3130 3131 3132 3133 3134 3135 3136 3137 3138 3138 3139 3141 3142 3143 3145 3146 3148 3150 3151 3153 3154 3155 3156 3156 3157 3158 3158 3159 3159 3160 3161 3161 3162 3162 3163 3163 3164 3164 3165 3166 3166 3168 3169 3169 3169 3169 3169 3169 3170 3171 3170 3172 3173 3174 3174 3174 3175 3175 3176 3176 3177 3177 3177 3178 3178 3179 3179 3179 3179 3178 3178 3178 3179 3180
3126 3126 3127 3127 3128 3127 3127 3127 3127 3127 3128 3129 3130 3131 3132 3133 3134 3135 3136 3137 3137 3139 3140 3141 3143 3144 3146 3148 3149 3151 3152 3153 3154 3155 3156 3156 3157 3158 3158 3159 3160 3160 3161 3161 3162 3162 3163 3163 3164 3164 3165 3166 3167 3169 3169 3169 3169 3169 3170 3170 3170 3171 3172 3173 3173 3174 3174 3175 3175 3176 3176 3176 3177 3177 3178 3178 3179 3179 3179 3179 3178 3178 3178 3178 3179
3124 3125 3126 3126 3126 3126 3126 3126 3127 3127 3127 3128 3129 3130 3131 3132 3133 3134 3135 3136 3137 3139 3140 3141 3142 3144 3146 3147 3149 3150 3151 3152 3153 3154 3155 3155 3156 3157 3158 3158 3159 3160 3160 3160 3161 3162 3162 3163 3163 3164 3165 3166 3167 3168 3168 3168 3169 3169 3170 3170 3171 3171 3172 3173 3173 3174 3174 3175 3175 3176 3176 3176 3177 3177 3178 3178 3178 3178 3178 3178 3178 3178 3178 3177 3177
3123 3124 3125 3125 3125 3125 3125 3126 3126 3126 3127 3128 3129 3130 3131 3132 3133 3134 3135 3136 3138 3139 3140 3141 3143 3144 3146 3147 3148 3149 3150 3151 3152 3153 3154 3154 3155 3156 3157 3158 3158 3159 3160 3160 3160 3161 3162 3162 3163 3164 3164 3166 3167 3168 3168 3168 3169 3169 3170 3170 3171 3171 3172 3173 3173 3174 3174 3175 3175 3176 3176 3177 3177 3177 3178 3178 3178 3178 3177 3177 3177 3177 3177 3177 3176
3122 3123 3123 3124 3124 3124 3124 3125 3126 3126 3127 3127 3128 3129 3130 3132 3133 3134 3136 3137 3138 3139 3140 3142 3143 3145 3146 3147 3148 3148 3149 3149 3150 3151 3152 3153 3154 3155 3156 3156 3157 3158 3159 3159 3160 3161 3161 3162 3162 3163 3164 3166 3167 3168 3168 3168 3169 3169 3170 3170 3171 3172 3173 3173 3174 3174 3175 3175 3176 3176 3176 3177 3177 3177 3178 3177 3177 3177 3177 3176 3177 3176 3176 3176 3176
3121 3121 3122 3123 3123 3123 3124 3124 3125 3126 3127 3127 3128 3130 3131 3133 3134 3135 3137 3138 3138 3139 3141 3142 3143 3144 3145 3146 3147 3147 3148 3148 3149 3150 3151 3152 3152 3153 3154 3155 3156 3157 3158 3158 3159 3160 3161 3161 3162 3162 3163 3165 3167 3168 3168 3169 3169 3169 3170 3170 3171 3172 3173 3173 3174 3175 3175 3176 3176 3176 3176 3177 3177 3177 3177 3177 3177 3177 3177 3176 3176 3176 3176 3176 3176
3119 3120 3121 3121 3122 3122 3123 3124 3125 3126 3126 3127 3128 3130 3131 3133 3134 3136 3137 3137 3138 3139 3141 3142 3143 3144 3145 3146 3146 3147 3147 3147 3148 3149 3150 3151 3152 3152 3153 3154 3155 3156 3157 3157 3158 3159 3160 3160 3161 3162 3163 3165 3167 3167 3168 3168 3169 3169 3170 3170 3171 3172 3173 3173 3174 3175 3175 3176 3176 3176 3176 3176 3177 3177 3177 3177 3177 3177 3177 3176 3176 3176 3176 3175 3175
3118 3118 3119 3120 3121 3122 3122 3123 3124 3125 3126 3127 3128 3130 3131 3133 3134 3135 3136 3137 3138 3140 3141 3142 3143 3144 3145 3146 3146 3146 3147 3147 3148 3149 3150 3150 3151 3152 3152 3153 3154 3155 3156 3157 3157 3158 3159 3160 3160 3161 3162 3164 3166 3167 3168 3168 3169 3169 3170 3170 3171 3172 3172 3173 3174 3174 3175 3175 3175 3175 3175 3176 3176 3176 3176 3176 3176 3176 3176 3176 3176 3176 3176 3175 3175
3117 3117 3118 3119 3120 3121 3122 3123 3124 3125 3126 3127 3128 3130 3131 3133 3134 3135 3136 3138 3139 3140 3141 3142 3143 3144 3145 3145 3146 3147 3147 3147 3148 3149 3149 3150 3150 3151 3152 3153 3153 3154 3155 3156 3157 3158 3158 3159 3160 3161 3162 3163 3165 3166 3167 3168 3169 3169 3170 3170 3171 3171 3172 3173 3173 3174 3174 3174 3174 3174 3174 3175 3176 3175 3175 3175 3175 3175 3175 3175 3175 3175 3175 3175 3174
3115 3116 3118 3118 3118 3119 3121 3122 3124 3125 3126 3127 3129 3130 3132 3133 3135 3136 3137 3138 3140 3141 3141 3142 3143 3144 3145 3146 3146 3147 3147 3148 3148 3148 3149 3149 3150 3150 3151 3152 3153 3154 3155 3156 3157 3157 3158 3158 3159 3160 3161 3162 3163 3165 3166 3167 3168 3169 3169 3170 3170 3171 3172 3172 3173 3173 3174 3174 3174 3174 3174 3175 3175 3175 3174 3175 3175 3175 3175 3175 3174 3174 3174 3174 3174
3114 3116 3117 3117 3117 3119 3121 3122 3124 3125 3126 3128 3129 3131 3132 3134 3135 3137 3138 3139 3140 3141 3142 3143 3144 3145 3145 3146 3146 3147 3147 3148 3148 3148 3149 3149 3149 3150 3150 3151 3152 3153 3154 3155 3156 3157 3157 3158 3158 3159 3160 3161 3162 3163 3165 3166 3167 3168 3169 3169 3170 3170 3171 3172 3172 3173 3174 3174 3174 3173 3174 3174 3174 3174 3174 3174 3174 3174 3174 3174 3174 3174 3174 3173 3173
3114 3115 3116 3116 3117 3118 3120 3122 3123 3125 3126 3128 3129 3131 3132 3134 3135 3136 3138 3139 3140 3142 3143 3144 3144 3145 3145 3146 3146 3147 3147 3148 3148 3148 3148 3148 3149 3149 3149 3150 3151 3152 3152 3153 3155 3156 3157 3157 3158 3159 3160 3160 3161 3163 3164 3165 3166 3167 3168 3169 3169 3170 3170 3171 3171 3172 3173 3174 3173 3173 3173 3173 3173 3173 3173 3173 3174 3174 3174 3173 3173 3173 3173 3173 3172
3113 3114 3115 3115 3116 3118 3120 3122 3123 3125 3126 3128 3129 3131 3132 3134 3135 3137 3138 3139 3141 3142 3143 3144 3145 3145 3145 3146 3146 3146 3147 3147 3148 3148 3148 3148 3148 3148 3149 3149 3150 3151 3151 3152 3153 3155 3156 3157 3157 3158 3159 3160 3161 3162 3163 3164 3164 3165 3167 3168 3169 3169 3170 3170 3171 3171 3173 3173 3173 3173 3172 3173 3173 3173 3173 3173 3173 3173 3173 3173 3172 3172 3172 3172 3172
3112 3113 3114 3115 3116 3118 3120 3122 3123 3124 3126 3128 3129 3131 3132 3134 3135 3137 3139 3140 3141 3142 3143 3144 3144 3145 3145 3146 3146 3146 3147 3147 3147 3147 3147 3147 3147 3148 3148 3148 3149 3150 3150 3151 3152 3153 3154 3156 3156 3157 3158 3159 3160 3161 3162 3163 3163 3165 3167 3168 3168 3169 3169 3170 3170 3171 3172 3172 3172 3172 3172 3172 3172 3173 3173 3172 3172 3172 3172 3172 3172 3172 3171 3171 3171
3110 3111 3113 3114 3116 3118 3120 3121 3123 3124 3126 3128 3129 3131 3132 3134 3136 3137 3139 3141 3142 3143 3143 3144 3144 3145 3145 3145 3146 3146 3146 3146 3146 3146 3146 3147 3147 3147 3147 3148 3148 3149 3149 3150 3151 3152 3153 3154 3155 3157 3158 3159 3160 3161 3161 3162 3163 3164 3165 3167 3168 3168 3168 3169 3170 3170 3171 3172 3172 3172 3172 3172 3172 3172 3172 3172 3172 3172 3171 3171 3171 3171 3171 3171 3171